| time (UTC) | temp C | wind direction | speed KPH | gust KPH | rain 1hr cm | rain 24hr cm | rain mn cm | humidity % | barometer mb |
| 20260906225313 | 30 | 108 | 11.3 | 11.3 | 0.00 | 0.00 | 0.00 | 37 | 1018.6 |
| 20260906224313 | 30 | 87 | 9.7 | 9.7 | 0.00 | 0.00 | 0.00 | 35 | 1018.6 |
| 20260906223813 | 30 | 106 | 9.7 | 9.7 | 0.00 | 0.00 | 0.00 | 34 | 1018.6 |
| 20260906222813 | 30 | 75 | 9.7 | 9.7 | 0.00 | 0.00 | 0.00 | 34 | 1019.0 |
| 20260906222313 | 30 | 102 | 8.0 | 8.0 | 0.00 | 0.00 | 0.00 | 33 | 1019.0 |
| 20260906221313 | 30 | 85 | 9.7 | 9.7 | 0.00 | 0.00 | 0.00 | 34 | 1019.3 |
| 20260906220312 | 30 | 65 | 9.7 | 9.7 | 0.00 | 0.00 | 0.00 | 34 | 1019.0 |
| 20260906215812 | 30 | 67 | 9.7 | 9.7 | 0.00 | 0.00 | 0.00 | 33 | 1019.3 |
| 20260906215312 | 30 | 48 | 9.7 | 9.7 | 0.00 | 0.00 | 0.00 | 34 | 1019.3 |
| 20260906214812 | 30 | 38 | 9.7 | 9.7 | 0.00 | 0.00 | 0.00 | 34 | 1019.3 |
| 20260906213813 | 30 | 51 | 9.7 | 9.7 | 0.00 | 0.00 | 0.00 | 34 | 1019.6 |
| 20260906210812 | 29 | 86 | 8.0 | 8.0 | 0.00 | 0.00 | 0.00 | 35 | 1020.0 |
| 20260906205812 | 29 | 52 | 8.0 | 8.0 | 0.00 | 0.00 | 0.00 | 34 | 1020.0 |
| 20260906203812 | 28 | 59 | 6.4 | 6.4 | 0.00 | 0.00 | 0.00 | 36 | 1020.3 |
| 20260906203312 | 28 | 65 | 6.4 | 6.4 | 0.00 | 0.00 | 0.00 | 35 | 1020.3 |
| 20260906202812 | 28 | 69 | 6.4 | 6.4 | 0.00 | 0.00 | 0.00 | 34 | 1020.7 |
| 20260906201812 | 28 | 54 | 6.4 | 6.4 | 0.00 | 0.00 | 0.00 | 35 | 1020.7 |
| 20260906201312 | 28 | 29 | 6.4 | 6.4 | 0.00 | 0.00 | 0.00 | 36 | 1020.7 |
| 20260906200812 | 28 | 79 | 6.4 | 6.4 | 0.00 | 0.00 | 0.00 | 35 | 1020.7 |
| 20260906200312 | 28 | 61 | 6.4 | 6.4 | 0.00 | 0.00 | 0.00 | 36 | 1020.7 |
| 20260906195812 | 28 | 59 | 6.4 | 6.4 | 0.00 | 0.00 | 0.00 | 37 | 1020.7 |
| 20260906194812 | 27 | 112 | 8.0 | 8.0 | 0.00 | 0.00 | 0.00 | 39 | 1021.0 |
| 20260906194312 | 27 | 81 | 8.0 | 8.0 | 0.00 | 0.00 | 0.00 | 40 | 1021.0 |
| 20260906193312 | 27 | 64 | 8.0 | 8.0 | 0.00 | 0.00 | 0.00 | 41 | 1021.3 |
| 20260906192812 | 26 | 97 | 8.0 | 8.0 | 0.00 | 0.00 | 0.00 | 41 | 1021.3 |
| 20260906191814 | 26 | 57 | 8.0 | 8.0 | 0.00 | 0.00 | 0.00 | 41 | 1021.3 |
| 20260906191312 | 26 | 49 | 6.4 | 6.4 | 0.00 | 0.00 | 0.00 | 40 | 1021.3 |
| 20260906190812 | 26 | 95 | 6.4 | 6.4 | 0.00 | 0.00 | 0.00 | 43 | 1021.3 |
| 20260906185812 | 26 | 30 | 6.4 | 6.4 | 0.00 | 0.00 | 0.00 | 43 | 1021.7 |
| 20260906185312 | 26 | 42 | 6.4 | 6.4 | 0.00 | 0.00 | 0.00 | 42 | 1021.7 |
| 20260906184811 | 26 | 60 | 6.4 | 6.4 | 0.00 | 0.00 | 0.00 | 41 | 1022.0 |
| 20260906184311 | 26 | 137 | 6.4 | 6.4 | 0.00 | 0.00 | 0.00 | 42 | 1022.0 |
| 20260906183811 | 25 | 68 | 6.4 | 6.4 | 0.00 | 0.00 | 0.00 | 42 | 1022.0 |
| 20260906182811 | 25 | 56 | 6.4 | 6.4 | 0.00 | 0.00 | 0.00 | 44 | 1022.0 |
| 20260906182311 | 25 | 70 | 6.4 | 6.4 | 0.00 | 0.00 | 0.00 | 43 | 1022.4 |
| 20260906180811 | 25 | 89 | 4.8 | 4.8 | 0.00 | 0.00 | 0.00 | 44 | 1022.4 |
| 20260906180311 | 25 | 10 | 4.8 | 4.8 | 0.00 | 0.00 | 0.00 | 42 | 1022.4 |
| 20260906175311 | 25 | 66 | 4.8 | 4.8 | 0.00 | 0.00 | 0.00 | 42 | 1022.7 |
| 20260906174811 | 25 | 104 | 3.2 | 3.2 | 0.00 | 0.00 | 0.00 | 42 | 1022.7 |
| 20260906173811 | 25 | 359 | 3.2 | 3.2 | 0.00 | 0.00 | 0.00 | 42 | 1023.0 |
| 20260906173311 | 24 | 43 | 3.2 | 3.2 | 0.00 | 0.00 | 0.00 | 44 | 1023.0 |
| 20260906172811 | 25 | 33 | 3.2 | 3.2 | 0.00 | 0.00 | 0.00 | 43 | 1023.0 |
| 20260906172311 | 25 | 18 | 3.2 | 3.2 | 0.00 | 0.00 | 0.00 | 42 | 1023.4 |
| 20260906171811 | 24 | 260 | 3.2 | 3.2 | 0.00 | 0.00 | 0.00 | 44 | 1023.4 |
| 20260906165811 | 23 | 148 | 3.2 | 3.2 | 0.00 | 0.00 | 0.00 | 47 | 1023.7 |
| 20260906165311 | 23 | 82 | 3.2 | 3.2 | 0.00 | 0.00 | 0.00 | 46 | 1023.7 |
| 20260906164811 | 22 | 168 | 3.2 | 3.2 | 0.00 | 0.00 | 0.00 | 50 | 1023.7 |
| 20260906163811 | 22 | 148 | 3.2 | 3.2 | 0.00 | 0.00 | 0.00 | 50 | 1023.7 |
| 20260906163311 | 22 | 192 | 3.2 | 3.2 | 0.00 | 0.00 | 0.00 | 52 | 1023.7 |
| 20260906161811 | 22 | 158 | 3.2 | 3.2 | 0.00 | 0.00 | 0.00 | 49 | 1023.7 |
| 20260906161311 | 22 | 133 | 3.2 | 3.2 | 0.00 | 0.00 | 0.00 | 49 | 1023.7 |
| 20260906160811 | 22 | 143 | 3.2 | 3.2 | 0.00 | 0.00 | 0.00 | 50 | 1023.7 |
| 20260906155311 | 21 | 130 | 3.2 | 3.2 | 0.00 | 0.00 | 0.00 | 53 | 1023.7 |
| 20260906154811 | 21 | 104 | 3.2 | 3.2 | 0.00 | 0.00 | 0.00 | 51 | 1023.7 |
| 20260906153811 | 21 | 123 | 3.2 | 3.2 | 0.00 | 0.00 | 0.00 | 51 | 1023.4 |
| 20260906153310 | 20 | 162 | 3.2 | 3.2 | 0.00 | 0.00 | 0.00 | 53 | 1023.4 |
| 20260906152811 | 21 | 174 | 3.2 | 3.2 | 0.00 | 0.00 | 0.00 | 52 | 1023.4 |
| 20260906152311 | 21 | 157 | 3.2 | 3.2 | 0.00 | 0.00 | 0.00 | 54 | 1023.7 |
| 20260906151311 | 21 | 134 | 1.6 | 1.6 | 0.00 | 0.00 | 0.00 | 51 | 1023.7 |
| 20260906150811 | 21 | 167 | 1.6 | 1.6 | 0.00 | 0.00 | 0.00 | 51 | 1023.7 |
| 20260906145311 | 20 | 184 | 1.6 | 1.6 | 0.00 | 0.00 | 0.00 | 52 | 1023.7 |
| 20260906144311 | 20 | 159 | 1.6 | 1.6 | 0.00 | 0.00 | 0.00 | 56 | 1023.7 |
| 20260906142810 | 19 | 154 | 1.6 | 1.6 | 0.00 | 0.00 | 0.00 | 55 | 1023.7 |
| 20260906142311 | 18 | 141 | 1.6 | 1.6 | 0.00 | 0.00 | 0.00 | 58 | 1023.7 |
| 20260906141310 | 18 | 203 | 3.2 | 3.2 | 0.00 | 0.00 | 0.00 | 59 | 1023.7 |
| 20260906140810 | 19 | 232 | 1.6 | 1.6 | 0.00 | 0.00 | 0.00 | 55 | 1023.7 |
| 20260906135310 | 18 | 177 | 3.2 | 3.2 | 0.00 | 0.00 | 0.00 | 58 | 1023.7 |
| 20260906134310 | 17 | 176 | 3.2 | 3.2 | 0.00 | 0.00 | 0.00 | 60 | 1023.7 |
| 20260906133811 | 17 | 161 | 3.2 | 3.2 | 0.00 | 0.00 | 0.00 | 61 | 1023.7 |
| 20260906132310 | 16 | 69 | 1.6 | 1.6 | 0.00 | 0.00 | 0.00 | 64 | 1023.4 |
| 20260906131810 | 16 | 15 | 1.6 | 1.6 | 0.00 | 0.00 | 0.00 | 66 | 1023.4 |
| 20260906131310 | 16 | 337 | 1.6 | 1.6 | 0.00 | 0.00 | 0.00 | 65 | 1023.4 |
| 20260906130810 | 16 | 286 | 1.6 | 1.6 | 0.00 | 0.00 | 0.00 | 64 | 1023.4 |
| 20260906130310 | 16 | 286 | 1.6 | 1.6 | 0.00 | 0.00 | 0.00 | 65 | 1023.0 |
| 20260906125810 | 16 | 300 | 1.6 | 1.6 | 0.00 | 0.00 | 0.00 | 66 | 1023.0 |
| 20260906124310 | 16 | 292 | 1.6 | 1.6 | 0.00 | 0.00 | 0.00 | 64 | 1023.0 |
| 20260906123810 | 16 | 288 | 1.6 | 1.6 | 0.00 | 0.00 | 0.00 | 64 | 1023.0 |
| 20260906122810 | 16 | 56 | 0.0 | 0.0 | 0.00 | 0.00 | 0.00 | 64 | 1023.0 |
| 20260906122310 | 16 | 321 | 1.6 | 1.6 | 0.00 | 0.00 | 0.00 | 63 | 1023.0 |
| 20260906121310 | 16 | 235 | 1.6 | 1.6 | 0.00 | 0.00 | 0.00 | 63 | 1023.0 |
| 20260906115309 | 16 | 214 | 1.6 | 1.6 | 0.00 | 0.00 | 0.00 | 61 | 1023.4 |
| 20260906114309 | 17 | 322 | 1.6 | 1.6 | 0.00 | 0.00 | 0.00 | 60 | 1023.4 |
| 20260906113810 | 17 | 13 | 1.6 | 1.6 | 0.00 | 0.00 | 0.00 | 60 | 1023.4 |
| 20260906112310 | 17 | 21 | 1.6 | 1.6 | 0.00 | 0.00 | 0.00 | 58 | 1023.0 |
| 20260906111809 | 17 | 61 | 1.6 | 1.6 | 0.00 | 0.00 | 0.00 | 59 | 1023.0 |
| 20260906110810 | 17 | 336 | 1.6 | 1.6 | 0.00 | 0.00 | 0.00 | 60 | 1022.7 |
| 20260906110309 | 17 | 293 | 1.6 | 1.6 | 0.00 | 0.00 | 0.00 | 57 | 1022.7 |
| 20260906105310 | 17 | 254 | 1.6 | 1.6 | 0.00 | 0.00 | 0.00 | 57 | 1022.7 |
| 20260906104310 | 18 | 344 | 1.6 | 1.6 | 0.00 | 0.00 | 0.00 | 57 | 1022.7 |
| 20260906103810 | 18 | 337 | 1.6 | 1.6 | 0.00 | 0.00 | 0.00 | 58 | 1022.7 |
| 20260906103310 | 18 | 312 | 3.2 | 3.2 | 0.00 | 0.00 | 0.00 | 56 | 1022.7 |
| 20260906102810 | 18 | 298 | 3.2 | 3.2 | 0.00 | 0.00 | 0.00 | 54 | 1022.7 |
| 20260906101809 | 18 | 324 | 3.2 | 3.2 | 0.00 | 0.00 | 0.00 | 53 | 1022.7 |
| 20260906100810 | 18 | 343 | 3.2 | 3.2 | 0.00 | 0.00 | 0.00 | 54 | 1022.7 |
| 20260906100310 | 18 | 340 | 1.6 | 1.6 | 0.00 | 0.00 | 0.00 | 56 | 1022.4 |
| 20260906095310 | 18 | 276 | 1.6 | 1.6 | 0.00 | 0.00 | 0.00 | 57 | 1022.7 |
| 20260906094810 | 18 | 345 | 1.6 | 1.6 | 0.00 | 0.00 | 0.00 | 56 | 1022.7 |
| 20260906093809 | 18 | 17 | 1.6 | 1.6 | 0.00 | 0.00 | 0.00 | 55 | 1022.7 |
| 20260906093310 | 18 | 333 | 1.6 | 1.6 | 0.00 | 0.00 | 0.00 | 57 | 1022.7 |
| 20260906092809 | 18 | 312 | 1.6 | 1.6 | 0.00 | 0.00 | 0.00 | 55 | 1022.7 |
| 20260906092310 | 18 | 279 | 1.6 | 1.6 | 0.00 | 0.00 | 0.00 | 55 | 1022.7 |
| 20260906091309 | 18 | 296 | 1.6 | 1.6 | 0.00 | 0.00 | 0.00 | 57 | 1022.4 |
| 20260906090309 | 18 | 232 | 1.6 | 1.6 | 0.00 | 0.00 | 0.00 | 57 | 1022.4 |
| 20260906085309 | 19 | 257 | 3.2 | 3.2 | 0.00 | 0.00 | 0.00 | 55 | 1022.4 |
| 20260906084809 | 19 | 222 | 3.2 | 3.2 | 0.00 | 0.00 | 0.00 | 54 | 1022.4 |
| 20260906084310 | 19 | 208 | 1.6 | 1.6 | 0.00 | 0.00 | 0.00 | 55 | 1022.4 |
| 20260906083810 | 20 | 63 | 1.6 | 1.6 | 0.00 | 0.00 | 0.00 | 54 | 1022.4 |
| 20260906083310 | 20 | 74 | 1.6 | 1.6 | 0.00 | 0.00 | 0.00 | 54 | 1022.4 |
| 20260906082809 | 20 | 75 | 3.2 | 3.2 | 0.00 | 0.00 | 0.00 | 52 | 1022.4 |
| 20260906082310 | 20 | 65 | 1.6 | 1.6 | 0.00 | 0.00 | 0.00 | 50 | 1022.4 |
| 20260906081309 | 21 | 93 | 1.6 | 1.6 | 0.00 | 0.00 | 0.00 | 47 | 1022.4 |
| 20260906080810 | 21 | 144 | 1.6 | 1.6 | 0.00 | 0.00 | 0.00 | 48 | 1022.4 |
| 20260906080309 | 21 | 104 | 3.2 | 3.2 | 0.00 | 0.00 | 0.00 | 48 | 1022.4 |
| 20260906075809 | 21 | 265 | 4.8 | 4.8 | 0.00 | 0.00 | 0.00 | 47 | 1022.4 |
| 20260906074810 | 21 | 333 | 4.8 | 4.8 | 0.00 | 0.00 | 0.00 | 44 | 1022.4 |
| 20260906073810 | 22 | 295 | 4.8 | 4.8 | 0.00 | 0.00 | 0.00 | 46 | 1022.4 |
| 20260906073309 | 22 | 276 | 4.8 | 4.8 | 0.00 | 0.00 | 0.00 | 46 | 1022.0 |
| 20260906072309 | 22 | 277 | 4.8 | 4.8 | 0.00 | 0.00 | 0.00 | 46 | 1022.0 |
| 20260906071809 | 21 | 282 | 3.2 | 3.2 | 0.00 | 0.00 | 0.00 | 47 | 1022.4 |
| 20260906071310 | 21 | 250 | 3.2 | 3.2 | 0.00 | 0.00 | 0.00 | 46 | 1022.4 |
| 20260906070309 | 21 | 256 | 3.2 | 3.2 | 0.00 | 0.00 | 0.00 | 46 | 1022.4 |
| 20260906065809 | 21 | 253 | 3.2 | 3.2 | 0.00 | 0.00 | 0.00 | 46 | 1022.4 |
| 20260906065310 | 21 | 266 | 3.2 | 3.2 | 0.00 | 0.00 | 0.00 | 46 | 1022.4 |
| 20260906064309 | 21 | 319 | 1.6 | 1.6 | 0.00 | 0.00 | 0.00 | 47 | 1022.4 |
| 20260906063810 | 21 | 297 | 1.6 | 1.6 | 0.00 | 0.00 | 0.00 | 47 | 1022.4 |
| 20260906063310 | 21 | 19 | 3.2 | 3.2 | 0.00 | 0.00 | 0.00 | 47 | 1022.4 |
| 20260906062809 | 21 | 198 | 3.2 | 3.2 | 0.00 | 0.00 | 0.00 | 48 | 1022.4 |
| 20260906062310 | 21 | 210 | 3.2 | 3.2 | 0.00 | 0.00 | 0.00 | 48 | 1022.7 |
| 20260906061309 | 21 | 235 | 4.8 | 4.8 | 0.00 | 0.00 | 0.00 | 48 | 1022.7 |
| 20260906060309 | 21 | 260 | 4.8 | 4.8 | 0.00 | 0.00 | 0.00 | 48 | 1022.7 |
| 20260906055309 | 22 | 320 | 4.8 | 4.8 | 0.00 | 0.00 | 0.00 | 46 | 1022.7 |
| 20260906054309 | 22 | 275 | 6.4 | 6.4 | 0.00 | 0.00 | 0.00 | 43 | 1022.7 |
| 20260906053309 | 22 | 254 | 6.4 | 6.4 | 0.00 | 0.00 | 0.00 | 44 | 1022.7 |
| 20260906052809 | 22 | 258 | 6.4 | 6.4 | 0.00 | 0.00 | 0.00 | 44 | 1022.7 |
| 20260906051809 | 22 | 281 | 6.4 | 6.4 | 0.00 | 0.00 | 0.00 | 46 | 1022.7 |
| 20260906051309 | 22 | 280 | 6.4 | 6.4 | 0.00 | 0.00 | 0.00 | 47 | 1022.7 |
| 20260906050309 | 23 | 288 | 4.8 | 4.8 | 0.00 | 0.00 | 0.00 | 46 | 1023.0 |
| 20260906045809 | 24 | 264 | 4.8 | 4.8 | 0.00 | 0.00 | 0.00 | 40 | 1023.4 |
| 20260906045309 | 25 | 240 | 4.8 | 4.8 | 0.00 | 0.00 | 0.00 | 38 | 1023.4 |
| 20260906044309 | 25 | 268 | 4.8 | 4.8 | 0.00 | 0.00 | 0.00 | 33 | 1023.0 |
| 20260906042309 | 23 | 322 | 3.2 | 3.2 | 0.00 | 0.00 | 0.00 | 36 | 1023.0 |
| 20260906040809 | 24 | 151 | 3.2 | 3.2 | 0.00 | 0.00 | 0.00 | 36 | 1022.7 |
| 20260906035809 | 24 | 196 | 1.6 | 1.6 | 0.00 | 0.00 | 0.00 | 35 | 1022.0 |
| 20260906035309 | 25 | 272 | 3.2 | 3.2 | 0.00 | 0.00 | 0.00 | 34 | 1022.0 |
| 20260906034809 | 25 | 290 | 3.2 | 3.2 | 0.00 | 0.00 | 0.00 | 34 | 1021.7 |
| 20260906034309 | 25 | 301 | 3.2 | 3.2 | 0.00 | 0.00 | 0.00 | 33 | 1021.7 |
| 20260906033309 | 25 | 338 | 3.2 | 3.2 | 0.00 | 0.00 | 0.00 | 32 | 1021.7 |
| 20260906032309 | 25 | 314 | 3.2 | 3.2 | 0.00 | 0.00 | 0.00 | 31 | 1021.7 |
| 20260906031809 | 25 | 315 | 3.2 | 3.2 | 0.00 | 0.00 | 0.00 | 32 | 1021.7 |
| 20260906030309 | 25 | 291 | 3.2 | 3.2 | 0.00 | 0.00 | 0.00 | 33 | 1021.3 |
| 20260906024808 | 25 | 283 | 3.2 | 3.2 | 0.00 | 0.00 | 0.00 | 35 | 1021.0 |
| 20260906024309 | 25 | 290 | 1.6 | 1.6 | 0.00 | 0.00 | 0.00 | 34 | 1021.0 |
| 20260906023308 | 25 | 236 | 3.2 | 3.2 | 0.00 | 0.00 | 0.00 | 32 | 1021.3 |
| 20260906022808 | 25 | 241 | 3.2 | 3.2 | 0.00 | 0.00 | 0.00 | 32 | 1021.3 |
| 20260906021809 | 26 | 252 | 3.2 | 3.2 | 0.00 | 0.00 | 0.00 | 30 | 1021.0 |
| 20260906015808 | 27 | 332 | 3.2 | 3.2 | 0.00 | 0.00 | 0.00 | 29 | 1021.0 |
| 20260906015309 | 27 | 346 | 3.2 | 3.2 | 0.00 | 0.00 | 0.00 | 29 | 1020.7 |
| 20260906014809 | 27 | 333 | 3.2 | 3.2 | 0.00 | 0.00 | 0.00 | 29 | 1020.7 |
| 20260906014308 | 27 | 338 | 3.2 | 3.2 | 0.00 | 0.00 | 0.00 | 29 | 1020.7 |
| 20260906013808 | 27 | 336 | 1.6 | 1.6 | 0.00 | 0.00 | 0.00 | 29 | 1020.7 |
| 20260906013308 | 27 | 3 | 1.6 | 1.6 | 0.00 | 0.00 | 0.00 | 29 | 1020.7 |
| 20260906012308 | 28 | 343 | 1.6 | 1.6 | 0.00 | 0.00 | 0.00 | 27 | 1020.7 |
| 20260906011809 | 28 | 358 | 3.2 | 3.2 | 0.00 | 0.00 | 0.00 | 27 | 1020.7 |
| 20260906011308 | 28 | 12 | 3.2 | 3.2 | 0.00 | 0.00 | 0.00 | 26 | 1020.7 |
| 20260906010308 | 28 | 34 | 3.2 | 3.2 | 0.00 | 0.00 | 0.00 | 26 | 1020.7 |
| 20260906005808 | 29 | 28 | 3.2 | 3.2 | 0.00 | 0.00 | 0.00 | 26 | 1020.7 |
| 20260906005308 | 29 | 13 | 3.2 | 3.2 | 0.00 | 0.00 | 0.00 | 25 | 1020.7 |
| 20260906004308 | 30 | 18 | 3.2 | 3.2 | 0.00 | 0.00 | 0.00 | 24 | 1020.7 |
| 20260906003808 | 30 | 21 | 4.8 | 4.8 | 0.00 | 0.00 | 0.00 | 24 | 1020.7 |
| 20260906003308 | 30 | 25 | 4.8 | 4.8 | 0.00 | 0.00 | 0.00 | 24 | 1020.7 |
| 20260906002808 | 30 | 6 | 4.8 | 4.8 | 0.00 | 0.00 | 0.00 | 23 | 1020.7 |
| 20260906001808 | 30 | 12 | 4.8 | 4.8 | 0.00 | 0.00 | 0.00 | 23 | 1020.7 |
| 20260906001308 | 30 | 29 | 4.8 | 4.8 | 0.00 | 0.00 | 0.00 | 24 | 1020.3 |
| 20260906000808 | 31 | 7 | 4.8 | 4.8 | 0.00 | 0.00 | 0.00 | 23 | 1020.3 |
| 20260906000308 | 31 | 350 | 3.2 | 3.2 | 0.00 | 0.00 | 0.00 | 23 | 1020.3 |
| 20260905235308 | 31 | 27 | 3.2 | 3.2 | 0.00 | 0.00 | 0.00 | 23 | 1020.3 |
| 20260905234808 | 31 | 12 | 3.2 | 3.2 | 0.00 | 0.00 | 0.00 | 23 | 1020.3 |
| 20260905234308 | 31 | 309 | 3.2 | 3.2 | 0.00 | 0.00 | 0.00 | 23 | 1020.3 |
| 20260905233808 | 31 | 325 | 3.2 | 3.2 | 0.00 | 0.00 | 0.00 | 23 | 1020.3 |
| 20260905232308 | 31 | 68 | 4.8 | 4.8 | 0.00 | 0.00 | 0.00 | 24 | 1020.3 |
| 20260905231808 | 31 | 125 | 3.2 | 3.2 | 0.00 | 0.00 | 0.00 | 24 | 1020.3 |
| 20260905231308 | 31 | 66 | 4.8 | 4.8 | 0.00 | 0.00 | 0.00 | 23 | 1020.3 |
| 20260905230808 | 30 | 138 | 4.8 | 4.8 | 0.00 | 0.00 | 0.00 | 24 | 1020.3 |
| 20260905230308 | 30 | 27 | 4.8 | 4.8 | 0.00 | 0.00 | 0.00 | 24 | 1020.3 |
| 20260905225808 | 30 | 45 | 4.8 | 4.8 | 0.00 | 0.00 | 0.00 | 24 | 1020.3 |